Regional Weather Roundup
Issued by NWS

Home | Current Version | Previous Version | Graphics & Text | Print | Product List | Glossary On
Versions: 1 2 3 4 5 6 7 8 9 10 11 12 13 14 15 16 17 18 19 20 21 22 23 24 25 26 27 28 29 30 31 32 33 34 35 36 37 38 39 40 41 42 43 44 45 46 47 48 49 50
000
ASUS43 KLMK 231810
RWRKY
KENTUCKY REGIONAL WEATHER ROUNDUP
NATIONAL WEATHER SERVICE LOUISVILLE KY
200 PM EDT MON MAY 23 2016

NOTE "FAIR" INDICATES FEW OR NO CLOUDS BELOW 12,000 FEET
WITH NO SIGNIFICANT WEATHER AND/OR OBSTRUCTIONS TO VISIBILITY.

KYZ001>023-026-027-061>063-070>075-231900-
WESTERN AND SOUTH CENTRAL KENTUCKY

CITY           SKY/WX    TMP DP  RH WIND       PRES   REMARKS
PADUCAH        SUNNY     84  49  29 VRB3      30.00F
HENDERSON      SUNNY     79  54  41 E9        29.99S
OWENSBORO      SUNNY     79  51  37 E7        30.01F
HOPKINSVILLE   MOSUNNY   79  52  39 NE8       30.01S
BOWLING GREEN  SUNNY     79  52  38 NE13G18   30.01F
GLASGOW        SUNNY     77  45  32 NE8       30.01F
$$

KYZ024-025-028>034-038-045-046-053-231900-
NORTH CENTRAL KENTUCKY

CITY           SKY/WX    TMP DP  RH WIND       PRES   REMARKS
LOUISVILLE/SDF SUNNY     77  40  26 CALM      30.02F
LOUISVILLE/LOU SUNNY     75  39  27 E6        30.03F
FORT KNOX      SUNNY     75  44  33 E12       30.01F
$$

KYZ035>037-039>044-047>052-055>060-089>105-231900-
NORTHEAST KENTUCKY

CITY           SKY/WX    TMP DP  RH WIND       PRES   REMARKS
LEXINGTON      SUNNY     73  50  44 N8        30.05F
COVINGTON      MOSUNNY   73  46  38 E9        30.05F
FRANKFORT      SUNNY     75  48  38 E8        30.04F
$$

KYZ054-064>069-076>088-106>120-231900-
SOUTHEAST KENTUCKY

CITY           SKY/WX    TMP DP  RH WIND       PRES   REMARKS
JACKSON        MOSUNNY   70  49  47 CALM      30.06F
LONDON         SUNNY     72  47  40 VRB7G17   30.04F
SOMERSET       SUNNY     73  43  33 NE5       30.05S
MIDDLESBORO    SUNNY     74  48  40 E3        30.03F
MONTICELLO     CLEAR     73  49  42 NW8G20    30.05S
$$




USA.gov is the U.S. government's official web portal to all federal, state and local government web resources and services.